Regional Weather Roundup
Issued by NWS Kansas City/Pleasant Hill, MO

Home | Current Version | Previous Version | Text Only | Print | Product List | Glossary On
Versions: 1 2 3 4 5 6 7 8 9 10 11 12 13 14 15 16 17 18 19 20 21 22 23 24 25 26 27 28 29 30 31 32 33 34 35 36 37 38 39 40 41 42 43 44 45 46 47 48 49 50
876
ASUS43 KEAX 202310
RWREAX

WEATHER ROUNDUP FOR EASTERN KANSAS AND NORTHWEST MISSOURI
NATIONAL WEATHER SERVICE KANSAS CITY/PLEASANT HILL MO
500 PM CST MON FEB 20 2017

KSZ040-057-103>105-MOZ028-029-037-043-210000-
...KANSAS CITY METROPOLITAN AREA...

CITY           SKY/WX    TMP DP  RH WIND       PRES   REMARKS
K.C. INTL      CLOUDY    64  51  62 SW14      29.85R
K.C. DOWNTOWN  CLOUDY    67  51  56 SW10      29.85R
LEES SUMMIT    CLOUDY    66  53  63 SW15      29.87R
OLATHE - IXD   PTSUNNY   64  51  62 S17       29.87R
OLATHE - OJC   CLOUDY    64  52  64 SW15G23   29.86R
LAWRENCE       CLOUDY    64  53  67 S13       29.85R

$$

MOZ001>008-011>017-020>025-030>033-038>040-044>046-053-054-210000-
...NORTHERN AND CENTRAL MISSOURI...

CITY           SKY/WX    TMP DP  RH WIND       PRES   REMARKS
ST. JOSEPH     PTSUNNY   64  53  67 S13       29.83R
WARRENSBURG    CLOUDY    64  54  68 SW12      29.88R
WHITEMAN AFB   MOCLDY    65  65 100 SW7       29.87R
CLINTON        PTSUNNY   66  59  77 SW7       29.89R
SEDALIA        CLOUDY    68  58  70 S17G23    29.89R
WARSAW         NOT AVBL
CHILLICOTHE      N/A     65  58  78 S6        29.85S
KIRKSVILLE     CLOUDY    65  57  75 S9        29.87S

$$

MOZ041-047>049-056>058-063>065-088>090-097-210000-
...EASTERN AND SOUTHERN MISSOURI...

CITY           SKY/WX    TMP DP  RH WIND       PRES   REMARKS
ST. LOUIS INTL CLOUDY    73  53  49 SE16G23   29.91S
SPIRIT OF STL  CLOUDY    75  49  39 S13       29.89R
COLUMBIA       LGT RAIN  66  60  81 W17G28    29.88R
JEFFERSON CITY CLOUDY    74  57  55 S9        29.85S
ROLLA          PTCLDY    72  56  57 S16       29.88S
OSAGE BEACH    LGT RAIN  69  59  70 W13G20    29.88R
SPRINGFIELD    CLOUDY    66  55  67 W12       29.90S
BRANSON        PTSUNNY   66  55  68 S7        29.93R
JOPLIN         CLOUDY    64  55  72 S12       29.91F
WEST PLAINS    MOCLDY    72  58  61 S9        29.92F

$$

IAZ060-094-KSZ022-034>040-054-083-096-NEZ052-066-093-210000-
...KANSAS...SOUTHEAST NEBRASKA AND IOWA...

CITY           SKY/WX    TMP DP  RH WIND       PRES   REMARKS
TOPEKA         CLOUDY    63  52  67 S9        29.84R
MANHATTAN      CLOUDY    63  53  70 SW9       29.82R
EMPORIA        CLOUDY    60  53  77 SW9       29.85S
CHANUTE        CLOUDY    63  52  67 S12       29.87F
WICHITA        MOSUNNY   62  53  72 S12       29.85S
OMAHA          PTSUNNY   60  51  72 NW12      29.80R
LINCOLN        MOSUNNY   62  44  51 N10       29.83R
FALLS CITY     CLOUDY    60  54  80 W8        29.84R
LAMONI         MOCLDY    62  57  83 S9        29.83R
DES MOINES     CLOUDY    62  59  90 S8        29.81R

$$





USA.gov is the U.S. government's official web portal to all federal, state and local government web resources and services.